トゥビオロ彗星

C/2000 Y1 ( Tubbiolo )

English version
Home page
Updated on October 22, 2002

---------------------------------------------------------------------

・ プロフィール

発見日 2000年12月16日
発見光度 19.3等
発見者 Andrew F. Tubbiolo (Kitt Peak)

・ 軌道要素

Epoch 2001 Feb. 20.0 TT = JDT 2451960.5
T 2001 Feb. 2.2123 TT                                   Marsden
q   7.974743             (2000.0)            P               Q
z  -0.000394       Peri.  181.7360      +0.5282425      +0.6237274
 +/-0.000008       Node   239.3958      +0.7868719      -0.1046446
e   1.003144       Incl.  137.9816      +0.3190494      -0.7746055
From 74 observations 2000 Oct. 24-2001 Oct. 29, mean residual 0".7.

・ 星図

・ 光度変化

        m1 = 6.0 + 5 logΔ + 10.0 log r

---------------------------------------------------------------------

軌道要素は Dr. Brian G. Marsden の計算によるもので、PCのEphemerides and Orbital Elementsに掲載されたものです。
星図は StellaNavigator Ver.2.0 for Windows (アストロアーツ 編著 / アスキー出版局刊) で作成したものです。
光度グラフはComet for Windowsで作成したものです。

---------------------------------------------------------------------

Copyright(C) Seiichi Yoshida (comet@aerith.net). All rights reserved.